Regional Weather Roundup
Issued by NWS

Home | Current Version | Previous Version | Text Only | Print | Product List | Glossary Off
Versions: 1 2 3 4 5 6 7 8 9 10 11 12 13 14 15 16 17 18 19 20 21 22 23 24 25 26 27 28 29 30 31 32 33 34 35 36 37 38 39 40 41 42 43 44 45 46 47 48 49 50

540
ASUS43 KLOT 230708
RWRIL

ILLINOIS REGIONAL WEATHER ROUNDUP
NATIONAL WEATHER SERVICE CHICAGO/ROMEOVILLE IL
200 AM CDT SUN APR 23 2017

NOTE: "FAIR" INDICATES FEW OR NO CLOUDS BELOW 12,000 FEET WITH NO
SIGNIFICANT WEATHER AND/OR OBSTRUCTIONS TO VISIBILITY.

* THESE STATIONS ARE NOT UNDER NWS QUALITY CONTROL. THEY ALSO MAY NOT
  REPORT WEATHER SUCH AS PRECIPITATION OR FOG.

ILZ001-002-007-009-015-016-024-230800-
NORTHWEST ILLINOIS

CITY           SKY/WX    TMP DP  RH WIND       PRES   REMARKS
MOLINE         CLEAR     40  35  83 CALM      30.14F
SAVANNA*       CLEAR     39  37  92 CALM      30.14F
$$

ILZ003-004-008-010-011-017-018-230800-
NORTH CENTRAL ILLINOIS

CITY           SKY/WX    TMP DP  RH WIND       PRES   REMARKS
ROCKFORD       CLEAR     40  33  76 CALM      30.15F
FREEPORT*      CLEAR     39  29  66 CALM      30.16S
ROCHELLE*      CLEAR     36  29  76 CALM      30.14F
DE KALB*       CLEAR     44  24  45 CALM      30.14F
PERU*          CLEAR     40  29  64 CALM      30.15S
$$

ILZ005-006-012>014-019>023-230800-
NORTHEAST ILLINOIS

CITY           SKY/WX    TMP DP  RH WIND       PRES   REMARKS
CHICAGO-OHARE  CLEAR     40  27  59 CALM      30.13F
CHICAGO-MIDWAY CLEAR     45  30  55 CALM      30.14F
AURORA         CLEAR     37  30  75 CALM      30.14F
LANSING*       CLEAR     37  34  89 CALM      30.14F
JOLIET*        CLEAR     37  33  86 CALM      30.14F
WAUKEGAN       CLEAR     36  33  89 SW5       30.12F WCI  32
DUPAGE AIRPORT CLEAR     37  31  78 CALM      30.13F
KANKAKEE*      CLEAR     37  28  70 CALM      30.14F
WHEELING       CLEAR     38  30  73 CALM      30.15S
MORRIS*        CLEAR     43  26  52 CALM      30.13S
ROMEOVILLE*    CLEAR     40  31  71 NE5       30.14S
NORTHERLY ISL    N/A     46  33  60 CALM        N/A
$$

LMZ740>746-230800-
SOUTHERN LAKE MICHIGAN

STATION/POSITION SKY/WX   TEMP    WIND        PRES    VSBY  WAVE
                          AIR SEA DIR/SP/G                  HT/PER
                          (F)     (DEG/KT/KT) (MB)    (MI)  (FT/S)
HARRISON CRIB              47     170/  7/  8   N/A
BURNHAM HARBOR             45      CALM  /  5   N/A
CALUMET HARBOR             47      80/  3/  4 1020.0F
BURNS HARBOR               46     100/  5/  6 1020.7F
MICHIGAN CITY              44      90/  4/  4   N/A
ST. JOSEPH                 48 48  110/  2/  4 1020.7          1/ 4
$$

ILZ025>027-034>036-040-047-049-050-058-095>099-230800-
WEST-CENTRAL ILLINOIS

CITY           SKY/WX    TMP DP  RH WIND       PRES   REMARKS
QUINCY         CLEAR     43  30  60 N7        30.14F
GALESBURG*     CLEAR     37  33  87 CALM      30.14F
MACOMB*        CLEAR     38  31  76 N3        30.16F
JACKSONVILLE*  CLEAR     42  28  58 NE5       30.13F
PITTSFIELD*    CLEAR     48  29  47 NE5       30.14F
$$

ILZ028>032-037-038-041>044-048-051>054-059>061-230800-
CENTRAL ILLINOIS

CITY           SKY/WX    TMP DP  RH WIND       PRES   REMARKS
PONTIAC        CLEAR     40  30  67 NE3       30.14F
BLOOMINGTON    CLEAR     41  28  60 NE7       30.13F
DECATUR        CLEAR     37  30  75 NE9       30.11F WCI  30
PEORIA         CLEAR     42  28  57 CALM      30.14F
LACON*         CLEAR     37  29  73 CALM      30.13F
LINCOLN*       CLEAR     42  31  66 NE3       30.12F
SPRINGFIELD    CLEAR     43  32  65 N5        30.12F
TAYLORVILLE    CLEAR     42  30  61 NE8       30.10F
$$

ILZ033-039-045-046-055>057-062-063-230800-
EAST-CENTRAL ILLINOIS

CITY           SKY/WX    TMP DP  RH WIND       PRES   REMARKS
CHAMPAIGN      CLEAR     43  26  51 NE12      30.11F
RANTOUL*       CLEAR     42  29  61 NE7       30.12F
MATTOON        CLEAR     40  32  73 N9        30.07F
PARIS*         CLEAR     42  32  66 N7        30.10F
$$

ILZ079-100>102-230800-
SOUTHWEST ILLINOIS

CITY           SKY/WX    TMP DP  RH WIND       PRES   REMARKS
ALTON          CLEAR     46  33  62 N6        30.09F
BELLEVILLE     CLEAR     47  35  63 N7        30.05F
CAHOKIA*       CLEAR     48  35  60 N8        30.07F
SPARTA*        CLEAR     45  37  72 N7        30.04F
$$

ILZ064>066-069>071-074>076-080>082-084>086-088>090-092>094-230800-
SOUTH-CENTRAL ILLINOIS

CITY           SKY/WX    TMP DP  RH WIND       PRES   REMARKS
CARBONDALE     CLOUDY    51  40  65 NE14      30.00F
CAIRO*         CLOUDY    51  44  76 N9        29.96F
EFFINGHAM*     CLEAR     46  35  67 N9        30.07F
MARION         CLOUDY    52  41  66 NE10      30.00F
MT. VERNON     CLEAR     47  35  63 NE8       30.03F
CENTRALIA*     CLEAR     48  37  63 N8        30.03F
SALEM*         CLEAR     46  36  67 NE6       30.05F
METROPOLIS*    CLOUDY    52  43  70 NE6       29.96F
$$

ILZ067-068-072-073-078-083-087-091-230800-
SOUTHEAST ILLINOIS

CITY           SKY/WX    TMP DP  RH WIND       PRES   REMARKS
LAWRENCEVILLE  CLEAR     45  35  68 N12       30.04F
FLORA*         CLEAR     47  37  66 N8        30.04F
FAIRFIELD*     CLOUDY    47  35  62 N7        30.01F
HARRISBURG*    CLOUDY    51  42  70 NE9       29.99F
ROBINSON*      CLEAR     44  35  72 NE8       30.06F
CARMI*         CLOUDY    49  41  71 N9        30.00F
$$

ABBREVIATIONS USED IN REMARKS
   TC - TEMPERATURE IN CELSIUS
  WCI - WIND CHILL INDEX
   HX - HEAT INDEX
  VSB - VISIBILITY
$$





USA.gov is the U.S. government's official web portal to all federal, state and local government web resources and services.